{"data":{"norad_id":67749,"intl_designator":"2026-027D","name":"2026-027D","alt_names":[],"object_type":"PAYLOAD","status":"ACTIVE","operator":null,"country":"PRC","launch_date":"2026-02-12","launch_site_code":"SCSLA","launch_vehicle":null,"mission":null,"orbit_class":"UNKNOWN","rcs_meters":null,"size_class":null,"mass_kg":null,"dimensions":null,"purposes":[],"wikipedia_slug":null,"has_3d_model":false,"image_url":null,"decayed_at":null,"tle_current":{"epoch":"2026-05-24T22:02:08.158272Z","epoch_age_seconds":72317,"freshness":"FRESH","line1":"1 67749U 26027D   26144.91814998  .00006620  00000+0  31511-3 0  9993","line2":"2 67749  97.5029 273.3436 0008787 308.8696  51.1754 15.19462172 15383","mean_motion":15.19462172,"eccentricity":0.0008787,"inclination_deg":97.5029,"raan_deg":273.3436,"arg_perigee_deg":308.8696,"mean_anomaly_deg":51.1754,"bstar":0.00031511,"rev_number":1538,"period_min":94.77037510612,"perigee_km":501.41457212857,"apogee_km":513.51532899649,"semimajor_km":6885.6019505625,"source":"CELESTRAK","updated_at":"2026-05-25T13:38:07.230890Z"}}}